This demonstration page uses our WeatherBlox Daily Observations layout. Learn more.

Left ArrowRight Arrow

30.00354, -91.81873

Hourly Observations for August 10, 2022

Temp ( °F °C ) Dew Point ( °F °C ) Humidity (%) Winds ( mph kmh ) Pressure ( in mb ) Visibility ( mi km ) Precip ( " mm )
12:53 am 00:53 Clear 77 25 73 22.8 88 88 Calm 30.04 1017 10 16 0.00 0.00
1:53 am 01:53 Clear 77 25 73 22.8 88 88 Calm 30.06 1018 10 16 0.00 0.00
2:53 am 02:53 Clear 76 24.4 73 22.8 91 91 ESE 5 7 30.05 1018 10 16 0.00 0.00
3:53 am 03:53 Clear 76 24.4 73 22.8 91 91 Calm 30.05 1018 10 16 0.00 0.00
4:53 am 04:53 Clear 75 23.9 72 22.2 90 90 Calm 30.06 1018 10 16 0.00 0.00
5:53 am 05:53 Clear 76 24.4 73 22.8 91 91 Calm 30.06 1018 10 16 0.00 0.00
6:53 am 06:53 Sunny 77 25 73 22.8 88 88 Calm 30.07 1018 10 16 0.00 0.00
7:53 am 07:53 Sunny 78 25.6 74 23.3 87 87 Calm 30.09 1019 10 16 0.00 0.00
8:53 am 08:53 Sunny 82 27.8 74 23.3 77 77 E 3 6 30.10 1019 10 16 0.00 0.00
9:53 am 09:53 Sunny 86 30 75 23.9 70 70 VRB 3 6 30.10 1019 10 16 0.00 0.00
10:53 am 10:53 Sunny 89 31.7 74 23.3 61 61 NE 6 9 30.09 1019 10 16 0.00 0.00
11:53 am 11:53 Mostly Cloudy 88 31.1 73 22.8 61 61 N 3 6 30.09 1019 10 16 0.00 0.00
12:53 pm 12:53 Partly Cloudy 89 31.7 72 22.2 57 57 undefined N/A 30.07 1018 10 16 0.00 0.00
1:53 pm 13:53 Mostly Cloudy 87 30.6 74 23.3 65 65 SSW 14 22 30.05 1018 10 16 0.00 0.00
2:05 pm 14:05 Mostly Cloudy with Nearby Thunderstorms 86 30 74 23.3 67 67 SSW 10 17 30.05 1018 10 16 0.00 0.00
2:19 pm 14:19 Cloudy with Thunderstorms 85 29.4 74 23.3 70 70 S 14 22 30.04 1017 10 16 0.00 0.00
2:37 pm 14:37 Cloudy with Thunderstorms 81 27.2 73 22.8 77 77 SE 20 31 30.04 1017 10 16 0.00 0.00
2:49 pm 14:49 Cloudy with Thunderstorms 81 27 73 23 79 79 SE 12 19 30.04 1017 10 16 0.01 0.13
2:53 pm 14:53 Cloudy with Thunderstorms 81 27.2 73 22.8 77 77 VRB 3 6 30.05 1018 10 16 0.01 0.13
3:13 pm 15:13 Cloudy with Thunderstorms 78 25.6 74 23.3 87 87 Calm 30.06 1018 1 2 0.09 2.29
3:24 pm 15:24 Cloudy with Strong Thunderstorms 78 25.6 74 23.3 87 87 N 12 19 30.07 1018 3 4 0.16 4.06
3:33 pm 15:33 Cloudy with Nearby Thunderstorms 78 25.6 75 23.9 90 90 NNE 7 11 30.06 1018 3 5 0.19 4.83
3:53 pm 15:53 Mostly Cloudy with Light Rain 77 25 74 23.3 90 90 NNE 6 9 30.05 1018 9 14 0.21 5.33
4:03 pm 16:03 Mostly Cloudy with Nearby Thunderstorms 77 25 74 23.3 90 90 N 6 9 30.05 1018 10 16 0.01 0.13
4:10 pm 16:10 Partly Cloudy with Thunderstorms 76 24.4 73 22.8 91 91 NNW 7 11 30.06 1018 10 16 0.01 0.13
4:28 pm 16:28 Partly Cloudy with Nearby Thunderstorms 76 24.4 73 22.8 91 91 NNE 6 9 30.05 1018 7 11 0.02 0.51
4:45 pm 16:45 Mostly Cloudy with Rain 76 24.4 74 23.3 94 94 Calm 30.05 1018 5 8 0.06 1.52
4:53 pm 16:53 Mostly Cloudy with Light Rain 77 25 74 23.3 90 90 Calm 30.05 1018 5 8 0.08 2.03
5:43 pm 17:43 Mostly Cloudy with Light Rain 78 25.6 74 23.3 87 87 NE 6 9 30.04 1017 10 16 0.03 0.76
5:49 pm 17:49 Mostly Cloudy with Light Rain 79 26 75 24 89 89 NNE 6 9 30.04 1017 10 16 0.03 0.76
5:53 pm 17:53 Mostly Cloudy with Light Rain 79 26.1 75 23.9 88 88 ENE 3 6 30.04 1017 10 16 0.03 0.76
6:03 pm 18:03 Mostly Sunny 79 26.1 74 23.3 85 85 Calm 30.04 1017 10 16 0.01 0.13
6:53 pm 18:53 Sunny 78 25.6 74 23.3 87 87 E 5 7 30.01 1016 10 16 0.01 0.13
7:53 pm 19:53 Sunny 77 25 74 23.3 90 90 E 5 7 30.01 1016 10 16 0.00 0.00
8:53 pm 20:53 Clear 77 25 74 23.3 90 90 ESE 5 7 30.03 1017 10 16 0.00 0.00
9:53 pm 21:53 Clear 76 24.4 74 23.3 94 94 Calm 30.04 1017 10 16 0.00 0.00
10:53 pm 22:53 Clear 76 24.4 74 23.3 94 94 Calm 30.06 1018 10 16 0.00 0.00
11:00 pm 23:00 Mostly Clear 76 24.4 74 23.3 94 94 Calm 30.06 1018 10 16 0.00 0.00

Powered by AerisWeather